Location: Treviso
(45.6669°N, 12.2430°E)
Time: 02:49:29
(UTC+01:00)

KAITUO 1B - Visible Passes

Search period start: 27 February 2021 00:00
Search period end: 09 March 2021 00:00
Orbit: 492 x 513 km, 97.4° (Epoch: 26 February)

Date Brightness Start Highest point End Pass type
(mag) Time Alt. Az. Time Alt. Az. Time Alt. Az.
27 Feb ? 06:10:09 10° NNE 06:13:29 32° E 06:16:46 10° SSE visible
27 Feb ? 18:24:20 10° SSW 18:27:36 29° W 18:30:53 10° NW visible
28 Feb ? 05:51:42 10° NE 05:54:27 20° E 05:57:11 10° SE visible
01 Mar ? 05:33:49 10° ENE 05:35:22 12° E 05:36:55 10° ESE visible
02 Mar ? 19:03:41 10° WSW 19:04:55 11° W 19:06:08 10° WNW visible
03 Mar ? 18:43:10 10° SW 18:45:49 18° W 18:48:27 10° NW visible
04 Mar ? 06:09:20 10° NNE 06:12:38 31° E 06:15:54 10° SSE visible
05 Mar ? 05:50:52 10° NE 05:53:35 19° E 05:56:16 10° SE visible
06 Mar ? 05:33:01 10° ENE 05:34:28 12° E 05:35:54 10° ESE visible
07 Mar ? 19:02:41 10° WSW 19:03:59 12° W 19:05:17 10° WNW visible
08 Mar ? 18:42:12 10° SW 18:44:52 19° W 18:47:32 10° NW visible
